When you browse on this site, cookies collect data to enhance your experience and personalize the content and advertising you see.
Visit our Privacy Policy to learn more. By continuing to use the site, you agree to this use of cookies and data.
  • In Hungary
  • List of Countries
  • For 7 days
  • Water Temperature
  • Satellite Maps
  • Weather Map
  • News
  • Weather Widgets
  • user-avatar
    Login

    Hourly Weather Piraeus

    Today, 18 July, Thursday

    Time Temperature Precipitation Wind Pressure Humidity
    00:00 +25°C° 0 mm 4 mps 754 mmHg 59%
    01:00 +25°C° 0 mm 4 mps 754 mmHg 59%
    02:00 +23°C° 0 mm 4 mps 754 mmHg 59%
    03:00 +24°C° 0 mm 3 mps 754 mmHg 59%
    04:00 +24°C° 0 mm 3 mps 754 mmHg 60%
    05:00 +24°C° 0 mm 3 mps 754 mmHg 61%
    06:00 +25°C° 0 mm 3 mps 754 mmHg 57%
    07:00 +27°C° 0 mm 3 mps 754 mmHg 52%
    08:00 +28°C° 0 mm 3 mps 755 mmHg 47%
    09:00 +29°C° 0 mm 3 mps 755 mmHg 44%
    10:00 +30°C° 0 mm 4 mps 756 mmHg 41%
    11:00 +32°C° 0 mm 4 mps 756 mmHg 38%
    12:00 +32°C° 0 mm 4 mps 756 mmHg 38%
    13:00 +33°C° 0 mm 4 mps 756 mmHg 37%
    14:00 +33°C° 0 mm 4 mps 756 mmHg 36%
    15:00 +33°C° 0 mm 4 mps 756 mmHg 36%
    16:00 +33°C° 0 mm 4 mps 756 mmHg 36%
    17:00 +33°C° 0 mm 4 mps 756 mmHg 35%
    18:00 +31°C° 0 mm 3 mps 756 mmHg 39%
    19:00 +29°C° 0 mm 3 mps 756 mmHg 42%
    20:00 +28°C° 0 mm 2 mps 756 mmHg 46%
    21:00 +28°C° 0 mm 2 mps 756 mmHg 48%
    22:00 +27°C° 0 mm 2 mps 757 mmHg 49%
    23:00 +26°C° 0 mm 2 mps 757 mmHg 51%

    Tomorrow, 19 July, Friday

    Time Temperature Precipitation Wind Pressure Humidity
    00:00 +26°C° 0 mm 2 mps 757 mmHg 52%
    01:00 +26°C° 0 mm 2 mps 757 mmHg 52%
    02:00 +25°C° 0 mm 2 mps 757 mmHg 53%
    03:00 +25°C° 0 mm 2 mps 757 mmHg 52%
    04:00 +25°C° 0 mm 2 mps 757 mmHg 51%
    05:00 +25°C° 0 mm 2 mps 757 mmHg 50%
    06:00 +26°C° 0 mm 2 mps 757 mmHg 47%
    07:00 +27°C° 0 mm 2 mps 757 mmHg 44%
    08:00 +29°C° 0 mm 2 mps 757 mmHg 41%
    09:00 +30°C° 0 mm 3 mps 758 mmHg 39%
    10:00 +32°C° 0 mm 4 mps 758 mmHg 38%
    11:00 +33°C° 0 mm 5 mps 758 mmHg 37%
    12:00 +33°C° 0 mm 5 mps 758 mmHg 35%
    13:00 +33°C° 0 mm 6 mps 758 mmHg 33%
    14:00 +34°C° 0 mm 6 mps 758 mmHg 32%
    15:00 +33°C° 0 mm 6 mps 758 mmHg 32%
    16:00 +33°C° 0 mm 6 mps 758 mmHg 33%
    17:00 +32°C° 0 mm 7 mps 757 mmHg 33%
    18:00 +30°C° 0 mm 6 mps 758 mmHg 36%
    19:00 +29°C° 0 mm 5 mps 758 mmHg 38%
    20:00 +28°C° 0 mm 4 mps 758 mmHg 41%
    21:00 +27°C° 0 mm 4 mps 758 mmHg 42%
    22:00 +27°C° 0 mm 3 mps 758 mmHg 44%
    23:00 +26°C° 0 mm 3 mps 758 mmHg 46%

    Day after tomorrow, 20 July, Saturday

    Time Temperature Precipitation Wind Pressure Humidity
    00:00 +26°C° 0 mm 3 mps 758 mmHg 47%
    01:00 +26°C° 0 mm 3 mps 758 mmHg 48%
    02:00 +25°C° 0 mm 3 mps 758 mmHg 49%
    03:00 +25°C° 0 mm 3 mps 758 mmHg 51%
    04:00 +25°C° 0 mm 4 mps 758 mmHg 53%
    05:00 +25°C° 0 mm 4 mps 758 mmHg 55%
    06:00 +26°C° 0 mm 4 mps 758 mmHg 53%
    07:00 +27°C° 0 mm 5 mps 758 mmHg 52%
    08:00 +28°C° 0 mm 5 mps 758 mmHg 51%
    09:00 +29°C° 0 mm 6 mps 758 mmHg 46%
    10:00 +30°C° 0 mm 7 mps 759 mmHg 41%
    11:00 +32°C° 0 mm 8 mps 759 mmHg 36%
    12:00 +33°C° 0 mm 8 mps 759 mmHg 34%
    13:00 +33°C° 0 mm 8 mps 759 mmHg 32%
    14:00 +33°C° 0 mm 8 mps 759 mmHg 30%
    15:00 +33°C° 0 mm 8 mps 759 mmHg 30%
    16:00 +33°C° 0 mm 8 mps 759 mmHg 30%
    17:00 +33°C° 0 mm 7 mps 758 mmHg 30%
    18:00 +30°C° 0 mm 6 mps 759 mmHg 32%
    19:00 +29°C° 0 mm 5 mps 759 mmHg 34%
    20:00 +28°C° 0 mm 4 mps 759 mmHg 36%
    21:00 +27°C° 0 mm 4 mps 759 mmHg 37%
    22:00 +27°C° 0 mm 4 mps 760 mmHg 38%
    23:00 +26°C° 0 mm 4 mps 760 mmHg 39%

    21 July, Sunday

    Time Temperature Precipitation Wind Pressure Humidity
    00:00 +26°C° 0 mm 4 mps 760 mmHg 41%
    01:00 +26°C° 0 mm 4 mps 759 mmHg 42%
    02:00 +26°C° 0 mm 3 mps 759 mmHg 44%
    03:00 +25°C° 0 mm 4 mps 759 mmHg 49%
    04:00 +25°C° 0 mm 4 mps 759 mmHg 53%
    05:00 +25°C° 0 mm 4 mps 759 mmHg 58%
    06:00 +26°C° 0 mm 5 mps 759 mmHg 53%
    07:00 +28°C° 0 mm 5 mps 759 mmHg 48%
    08:00 +29°C° 0 mm 6 mps 760 mmHg 43%
    09:00 +30°C° 0 mm 7 mps 760 mmHg 39%
    10:00 +32°C° 0 mm 8 mps 760 mmHg 36%
    11:00 +33°C° 0 mm 9 mps 760 mmHg 33%
    12:00 +33°C° 0 mm 9 mps 760 mmHg 32%
    13:00 +34°C° 0 mm 9 mps 760 mmHg 31%
    14:00 +34°C° 0 mm 9 mps 760 mmHg 30%
    15:00 +34°C° 0 mm 9 mps 760 mmHg 30%
    16:00 +33°C° 0 mm 9 mps 760 mmHg 29%
    17:00 +33°C° 0 mm 9 mps 759 mmHg 28%
    18:00 +32°C° 0 mm 7 mps 760 mmHg 31%
    19:00 +30°C° 0 mm 6 mps 760 mmHg 34%
    20:00 +29°C° 0 mm 4 mps 760 mmHg 37%
    21:00 +28°C° 0 mm 4 mps 760 mmHg 39%
    22:00 +28°C° 0 mm 4 mps 760 mmHg 40%
    23:00 +27°C° 0 mm 4 mps 760 mmHg 42%

    22 July, Monday

    Time Temperature Precipitation Wind Pressure Humidity
    00:00 +27°C° 0 mm 4 mps 759 mmHg 44%
    01:00 +27°C° 0 mm 4 mps 759 mmHg 47%
    02:00 +26°C° 0 mm 5 mps 759 mmHg 50%
    03:00 +26°C° 0 mm 5 mps 759 mmHg 52%
    04:00 +26°C° 0 mm 5 mps 758 mmHg 55%
    05:00 +26°C° 0 mm 5 mps 758 mmHg 58%
    06:00 +27°C° 0 mm 6 mps 758 mmHg 52%
    07:00 +29°C° 0 mm 7 mps 759 mmHg 46%
    08:00 +31°C° 0 mm 8 mps 759 mmHg 40%
    09:00 +32°C° 0 mm 9 mps 759 mmHg 37%
    10:00 +33°C° 0 mm 9 mps 759 mmHg 34%
    11:00 +34°C° 0 mm 10 mps 759 mmHg 32%
    12:00 +36°C° 0 mm 10 mps 759 mmHg 31%
    13:00 +36°C° 0 mm 10 mps 759 mmHg 31%
    14:00 +35°C° 0 mm 9 mps 759 mmHg 30%
    15:00 +35°C° 0 mm 9 mps 758 mmHg 30%
    16:00 +35°C° 0 mm 9 mps 758 mmHg 30%
    17:00 +34°C° 0 mm 8 mps 758 mmHg 30%
    18:00 +33°C° 0 mm 7 mps 758 mmHg 34%
    19:00 +32°C° 0 mm 6 mps 758 mmHg 37%
    20:00 +30°C° 0 mm 4 mps 758 mmHg 40%
    21:00 +29°C° 0 mm 4 mps 758 mmHg 43%
    22:00 +29°C° 0 mm 4 mps 758 mmHg 45%
    23:00 +28°C° 0 mm 4 mps 758 mmHg 47%

    23 July, Tuesday

    Time Temperature Precipitation Wind Pressure Humidity
    00:00 +28°C° 0 mm 4 mps 757 mmHg 48%
    01:00 +28°C° 0 mm 4 mps 757 mmHg 49%
    02:00 +28°C° 0 mm 4 mps 757 mmHg 49%
    03:00 +27°C° 0 mm 4 mps 756 mmHg 50%
    04:00 +27°C° 0 mm 4 mps 756 mmHg 51%
    05:00 +27°C° 0 mm 4 mps 756 mmHg 51%
    06:00 +28°C° 0 mm 5 mps 756 mmHg 46%
    07:00 +30°C° 0 mm 6 mps 756 mmHg 42%
    08:00 +32°C° 0 mm 6 mps 756 mmHg 37%
    09:00 +33°C° 0 mm 7 mps 756 mmHg 35%
    10:00 +34°C° 0 mm 7 mps 756 mmHg 34%
    11:00 +37°C° 0 mm 8 mps 756 mmHg 33%
    12:00 +37°C° 0 mm 8 mps 756 mmHg 32%
    13:00 +37°C° 0 mm 8 mps 756 mmHg 32%
    14:00 +38°C° 0 mm 8 mps 756 mmHg 32%
    15:00 +38°C° 0 mm 7 mps 756 mmHg 33%
    16:00 +36°C° 0 mm 7 mps 755 mmHg 33%
    17:00 +36°C° 0 mm 6 mps 755 mmHg 34%
    18:00 +35°C° 0 mm 5 mps 755 mmHg 37%
    19:00 +34°C° 0 mm 4 mps 755 mmHg 40%
    20:00 +32°C° 0 mm 2 mps 755 mmHg 42%
    21:00 +31°C° 0 mm 2 mps 755 mmHg 44%
    22:00 +30°C° 0 mm 2 mps 755 mmHg 45%
    23:00 +30°C° 0 mm 2 mps 755 mmHg 46%
    Show more